Location: Wavehorne
(51.0500°N, 0.8333°E)
Time: 12:11:28
(UTC+00:00)

NOSS 2-2 (C) - Pass Details

Date: 27 October 2021
Orbit: 450 x 1756 km, 63.3° (Epoch: 24 November)

Event Time Altitude Azimuth Distance (km) Brightness Sun altitude
Exits shadow 03:28:07 24° 168° (SSE) 2,066 6.1 -30.5°
Drops below altitude 10° 03:31:06 10° 159° (SSE) 3,105 7.1 -30.1°
Sets 03:34:22 0° 156° (SSE) 4,283 7.9 -29.6°
